Flag for U.S.A. Weather past 2 weeks in Santa Cruz, California, U.S.A.

Now
62 °F

Clear.


Feels Like: 62 °F
Forecast: 56 / 76 °F
Wind: 5 mph from Southeast

Location: Watsonville Municipal Airport

Current Time: Sep 30, 2014 at 9:05:12 PM

Latest Report: Sep 30, 2014 at 7:53 PM


Visibility: 10 mi

Pressure: 29.86 "Hg

Humidity: 83%

Dew point: 57 °F

Location of Santa CruzLocation

Historic Weather in Santa Cruz — Graph

°F

Santa Cruz temperature yesterday

Maximum temperature yesterday: 74 °F (at 1:53 PM)
Minimum temperature yesterday: 55 °F (at 6:53 AM)
Average temperature yesterday: 64 °F

Past Weeks' High & Low Weather Summary

 TemperatureHumidityPressure
High82 °F (Sep 16, 12:53 PM)93% (Sep 18, 4:53 AM)30.04 "Hg (Sep 18, 4:53 AM)
Low54 °F (Sep 16, 6:53 AM)33% (Sep 16, 3:53 PM)29.80 "Hg (Sep 17, 5:53 PM)
Average66 °F76%29.93 "Hg
* Reported Sep 15 7:53 PM — Sep 30 7:53 PM, Santa Cruz, Weather by CustomWeather, © 2014

Note: Actual official high and low records may vary slightly from our data, if they occured in-between our weather recording intervals... More about our weather records

Advertising

Santa Cruz weather history for previous 24 hours

 ConditionsComfort  
Time TempWeatherWind HumidityBarometerVisibility
7:53 PM
Sep 30
62 °FClear.5 mph83%29.86 "Hg10 mi
6:53 PM64 °FSunny.6 mph78%29.85 "Hg10 mi
5:53 PM69 °FSunny.7 mph63%29.86 "Hg10 mi
4:53 PM71 °FSunny.7 mph59%29.86 "Hg10 mi
3:53 PM71 °FSunny.7 mph59%29.88 "Hg10 mi
2:53 PM71 °FSunny.7 mph63%29.89 "Hg10 mi
1:53 PM72 °FSunny.9 mph59%29.92 "Hg10 mi
12:53 PM67 °FPassing clouds.6 mph71%29.94 "Hg10 mi
11:53 AM62 °FLow clouds.No wind83%29.97 "Hg6 mi
10:53 AM60 °FFog.5 mph90%29.99 "Hg5 mi
9:53 AM59 °FFog.No wind90%29.99 "Hg2 mi
8:53 AM59 °FFog.No wind90%29.99 "Hg1 mi
7:53 AM59 °FFog.5 mph90%29.99 "Hg1 mi
6:59 AM58 °FFog.No wind93%29.98 "Hg1 mi
5:53 AM59 °FFog.3 mph90%29.98 "Hg5 mi
4:53 AM59 °FLow clouds.No wind90%29.97 "Hg9 mi
4:00 AM58 °FLow clouds.No wind87%29.98 "Hg10 mi
2:53 AM57 °FLow clouds.No wind87%29.98 "Hg10 mi
1:53 AM58 °FClear.5 mph87%30.00 "Hg10 mi
12:53 AM58 °FClear.3 mph87%30.00 "Hg10 mi
11:53 PM
Sep 29
59 °FClear.3 mph87%30.01 "Hg10 mi
10:53 PM61 °FClear.No wind83%30.00 "Hg10 mi
9:53 PM62 °FClear.No wind83%30.00 "Hg10 mi
Weather by CustomWeather, © 2014

See weather overviewHow to use our weather pages